Regional Weather Roundup
Issued by NWS

Home | Current Version | Previous Version | Text Only | Print | Product List | Glossary Off
Versions: 1 2 3 4 5 6 7 8 9 10 11 12 13 14 15 16 17 18 19 20 21 22 23 24 25 26 27 28 29 30 31 32 33 34 35 36 37 38 39 40 41 42 43 44 45 46 47 48 49 50

000
ASUS43 KIND 301209
RWRIN

WEATHER ROUNDUP FOR INDIANA
NATIONAL WEATHER SERVICE INDIANAPOLIS IN
800 AM EDT SAT AUG 30 2014

NOTE: "FAIR" INDICATES FEW OR NO CLOUDS BELOW 12,000 FEET WITH NO
SIGNIFICANT WEATHER AND/OR OBSTRUCTIONS TO VISIBILITY.

* - STATION DOES NOT REPORT WEATHER SUCH AS PRECIPITATION OR FOG.

+ - STATION NOT QUALITY CONTROLLED BY THE NATIONAL WEATHER SERVICE.
    USE DATA WITH CAUTION...ESPECIALLY DEWPOINT AND RELATIVE
    HUMIDITY OBSERVATIONS.

INZ001>003-010>013-019-020-301300-
NORTHWEST INDIANA

CITY           SKY/WX    TMP DP  RH WIND       PRES   REMARKS
GARY /AIRPORT/ PTCLDY    73  70  88 S8        29.88R
KNOX *+        CLOUDY    72  66  82 S13G18    29.91S
LA PORTE +     CLOUDY    71  69  93 S7        29.91S
6HR MIN TEMP:  69; 6HR MAX TEMP:  72;

MICHIGAN CITY+ CLOUDY    72  66  83 S6G20     29.89S
MONTICELLO +   CLOUDY    72  68  89 S8        29.94R
RENSSELAER +   CLOUDY    72  70  94 S9        29.92S
VALPARAISO     CLOUDY    72  68  87 S10       29.90S
6HR MIN TEMP:  71; 6HR MAX TEMP:  73;


$$

LMZ046-743>745-301300-
SOUTHERN LAKE MICHIGAN

STATION/POSITION TIME  TEMP WIND        PRES
                       AIR  DIR/SP/G
                 (UTC) (F)  (DEG/KT/KT) (MB)
MICHIGAN CITY    1200   73  170/ 14/ 17   N/A

$$

INZ004-005-014>016-021>024-301300-
NORTH CENTRAL INDIANA

CITY           SKY/WX    TMP DP  RH WIND       PRES   REMARKS
ELKHART        CLOUDY    72  68  88 S6        29.93
GOSHEN         MOCLDY    72  67  84 S6        29.94R
6HR MIN TEMP:  72; 6HR MAX TEMP:  75; 6HR PCP:  0.01;

LOGANSPORT +   CLOUDY    72  64  78 S10       29.96S
PERU/GRISSOM   CLOUDY    73  70  90 S12       29.96S
6HR MIN TEMP:  71; 6HR MAX TEMP:  73;

ROCHESTER +    CLOUDY    73  68  83 S8        29.95S
SOUTH BEND     CLOUDY    72  68  87 S9        29.92R
6HR MIN TEMP:  72; 6HR MAX TEMP:  74; 6HR PCP:  0.09;

WARSAW +       MOCLDY    72  66  83 S5        29.95R

$$

INZ006>009-017-018-025>027-301300-
NORTHEAST INDIANA

CITY           SKY/WX    TMP DP  RH WIND       PRES   REMARKS
ANGOLA *+      CLOUDY    70  61  73 S5        29.96S
AUBURN +       PTCLDY    72  63  73 S3        29.97F
FORT WAYNE     MOCLDY    71  64  78 S12       29.98S
6HR MIN TEMP:  69; 6HR MAX TEMP:  72;

HUNTINGTON +   CLOUDY    71  64  81 S5        29.97S
6HR MIN TEMP:  69; 6HR MAX TEMP:  72;


$$

INZ028-029-035-036-043>045-051>053-301300-
WEST CENTRAL INDIANA

CITY           SKY/WX    TMP DP  RH WIND       PRES   REMARKS
GREENCASTLE +  CLOUDY    72  66  83 S5        30.01R
LAFAYETTE      CLOUDY    72  67  84 VRB6      29.94S
6HR MIN TEMP:  71; 6HR MAX TEMP:  73;

TERRE HAUTE    CLOUDY    73  68  84 S8        29.99R
6HR MIN TEMP:  72; 6HR MAX TEMP:  75; 6HR PCP: TRACE;


$$

INZ030>032-037>040-046>048-054>057-064-065-301300-
CENTRAL INDIANA

CITY           SKY/WX    TMP DP  RH WIND       PRES   REMARKS
CP ATTERBURY + CLOUDY    68  63  83 CALM      30.03R
COLUMBUS       CLOUDY    72  64  78 S5        30.03R
FRANKFORT +    CLOUDY    72  67  85 S5        29.98S
GREENWOOD *+   CLOUDY    72  66  83 S5        30.02
INDIANAPOLIS   CLOUDY    72  65  78 S8        29.99R
6HR MIN TEMP:  71; 6HR MAX TEMP:  74; 6HR PCP: TRACE;

-EAGLE CREEK   CLOUDY    73  64  73 S5        29.99S
6HR MIN TEMP:  71; 6HR MAX TEMP:  75; 6HR PCP: TRACE;

KOKOMO *+      CLOUDY    72  64  78 S8        29.97F
MARION +       CLOUDY    71  62  75 S8        29.99S
MT COMFORT *+  MOCLDY    70  68  94 S7        30.01S
SHELBYVILLE    LGT RAIN  70  65  84 S9        30.02R
6HR MIN TEMP:  70; 6HR MAX TEMP:  74; 6HR PCP:  0.06;

ZIONSVILLE +   LGT RAIN  73  64  75 S7G16     30.00R
6HR MIN TEMP:  71; 6HR MAX TEMP:  74;


$$

INZ033-034-041-042-049-050-058-059-301300-
EAST CENTRAL INDIANA

CITY           SKY/WX    TMP DP  RH WIND       PRES   REMARKS
MUNCIE         CLOUDY    73  61  65 S9        30.01R
6HR MIN TEMP:  72; 6HR MAX TEMP:  75;


$$

INZ060-061-067>069-081>083-085>088-301300-
SOUTHWEST INDIANA

CITY           SKY/WX    TMP DP  RH WIND       PRES   REMARKS
EVANSVILLE     LGT RAIN  72  69  90 CALM      30.02R
6HR MIN TEMP:  72; 6HR MAX TEMP:  78; 6HR PCP:  0.28;

WASHINGTON +   CLOUDY    71  71  99 S7        30.00F
6HR MIN TEMP:  71; 6HR MAX TEMP:  74; 6HR PCP:  0.13;


$$

INZ062-063-066-070>080-084-089>092-301300-
SOUTH CENTRAL AND SOUTHEAST INDIANA

CITY           SKY/WX    TMP DP  RH WIND       PRES   REMARKS
BEDFORD +      CLOUDY    70  63  78 CALM      30.04
BLOOMINGTON    RAIN      71  67  87 SW3       30.04R FOG
6HR MIN TEMP:  70; 6HR MAX TEMP:  74; 6HR PCP:  0.02;

NORTH VERNON + CLOUDY    72  64  78 S6        30.05

$$



USA.gov is the U.S. government's official web portal to all federal, state and local government web resources and services.